| time (UTC) | temp F | wind direction | speed MPH | gust MPH | rain 1hr in | rain 24hr in | rain mn in | humidity % | barometer mb |
| 20260906022007 | 73 | 34 | 4.0 | 7.0 | 0.00 | 0.00 | 0.00 | 94 | 1020.4 |
| 20260906021502 | 73 | 57 | 5.0 | 6.0 | 0.00 | 0.00 | 0.00 | 94 | 1020.6 |
| 20260906020956 | 73 | 46 | 3.0 | 6.0 | 0.00 | 0.00 | 0.00 | 94 | 1020.6 |
| 20260906020450 | 73 | 41 | 5.0 | 10.0 | 0.00 | 0.00 | 0.00 | 94 | 1020.6 |
| 20260906015950 | 72 | 54 | 3.0 | 5.0 | 0.00 | 0.00 | 0.00 | 94 | 1020.7 |
| 20260906015449 | 72 | 48 | 3.0 | 3.0 | 0.00 | 0.00 | 0.00 | 94 | 1020.8 |
| 20260906014949 | 72 | 13 | 7.0 | 8.0 | 0.00 | 0.00 | 0.00 | 94 | 1020.8 |
| 20260906014449 | 72 | 30 | 5.0 | 6.0 | 0.00 | 0.00 | 0.00 | 95 | 1020.5 |
| 20260906013946 | 72 | 43 | 6.0 | 8.0 | 0.00 | 0.00 | 0.00 | 95 | 1020.6 |
| 20260906013441 | 72 | 22 | 7.0 | 8.0 | 0.00 | 0.00 | 0.00 | 95 | 1020.5 |
| 20260906012937 | 72 | 28 | 7.0 | 8.0 | 0.00 | 0.00 | 0.00 | 95 | 1020.2 |
| 20260906012437 | 72 | 347 | 8.0 | 10.0 | 0.00 | 0.00 | 0.00 | 95 | 1020.3 |
| 20260906011936 | 72 | 31 | 10.0 | 15.0 | 0.00 | 0.00 | 0.00 | 95 | 1020.2 |
| 20260906011432 | 72 | 35 | 4.0 | 5.0 | 0.00 | 0.00 | 0.00 | 94 | 1020.1 |
| 20260906010927 | 72 | 354 | 5.0 | 8.0 | 0.00 | 0.00 | 0.00 | 94 | 1020.0 |
| 20260906010422 | 73 | 24 | 7.0 | 9.0 | 0.00 | 0.00 | 0.00 | 94 | 1020.0 |
| 20260906005918 | 73 | 5 | 4.0 | 5.0 | 0.00 | 0.00 | 0.00 | 94 | 1019.9 |
| 20260906005417 | 73 | 33 | 5.0 | 6.0 | 0.00 | 0.00 | 0.00 | 94 | 1019.7 |
| 20260906004916 | 73 | 23 | 7.0 | 10.0 | 0.00 | 0.00 | 0.00 | 94 | 1019.5 |
| 20260906004410 | 73 | 339 | 7.0 | 10.0 | 0.00 | 0.00 | 0.00 | 94 | 1019.7 |
| 20260906003906 | 73 | 348 | 6.0 | 7.0 | 0.00 | 0.00 | 0.00 | 93 | 1019.7 |
| 20260906003401 | 73 | 38 | 9.0 | 11.0 | 0.00 | 0.00 | 0.00 | 93 | 1019.5 |
| 20260906002857 | 73 | 27 | 9.0 | 10.0 | 0.00 | 0.00 | 0.00 | 93 | 1019.6 |
| 20260906002356 | 73 | 350 | 5.0 | 6.0 | 0.00 | 0.00 | 0.00 | 93 | 1019.7 |
| 20260906001852 | 73 | 345 | 7.0 | 9.0 | 0.00 | 0.00 | 0.00 | 93 | 1019.8 |
| 20260906001347 | 73 | 3 | 9.0 | 13.0 | 0.00 | 0.00 | 0.00 | 93 | 1019.7 |
| 20260906000842 | 73 | 43 | 11.0 | 13.0 | 0.00 | 0.00 | 0.00 | 93 | 1019.6 |
| 20260906000342 | 74 | 49 | 4.0 | 6.0 | 0.00 | 0.00 | 0.00 | 94 | 1019.6 |
| 20260905235842 | 74 | 48 | 6.0 | 8.0 | 0.00 | 0.00 | 0.00 | 93 | 1019.7 |
| 20260905235337 | 74 | 352 | 9.0 | 11.0 | 0.00 | 0.00 | 0.00 | 92 | 1019.7 |
| 20260905234832 | 74 | 19 | 7.0 | 8.0 | 0.00 | 0.00 | 0.00 | 92 | 1019.6 |
| 20260905234327 | 75 | 9 | 8.0 | 10.0 | 0.00 | 0.00 | 0.00 | 92 | 1019.6 |
| 20260905233823 | 75 | 6 | 7.0 | 8.0 | 0.00 | 0.00 | 0.00 | 91 | 1019.3 |
| 20260905233317 | 75 | 13 | 5.0 | 8.0 | 0.00 | 0.00 | 0.00 | 91 | 1019.5 |
| 20260905232817 | 75 | 36 | 10.0 | 11.0 | 0.00 | 0.00 | 0.00 | 90 | 1019.4 |
| 20260905232313 | 75 | 37 | 9.0 | 10.0 | 0.00 | 0.00 | 0.00 | 89 | 1019.5 |
| 20260905231808 | 76 | 41 | 5.0 | 6.0 | 0.00 | 0.00 | 0.00 | 89 | 1019.3 |
| 20260905231303 | 76 | 1 | 9.0 | 11.0 | 0.00 | 0.00 | 0.00 | 89 | 1019.2 |
| 20260905230800 | 76 | 39 | 6.0 | 9.0 | 0.00 | 0.00 | 0.00 | 89 | 1019.3 |
| 20260905230257 | 76 | 50 | 6.0 | 9.0 | 0.00 | 0.00 | 0.00 | 90 | 1019.2 |
| 20260905225757 | 76 | 47 | 10.0 | 13.0 | 0.00 | 0.00 | 0.00 | 89 | 1019.3 |
| 20260905225252 | 77 | 355 | 11.0 | 14.0 | 0.00 | 0.00 | 0.00 | 89 | 1019.5 |
| 20260905224751 | 76 | 21 | 11.0 | 13.0 | 0.00 | 0.00 | 0.00 | 90 | 1019.4 |
| 20260905224247 | 76 | 38 | 5.0 | 6.0 | 0.00 | 0.00 | 0.00 | 91 | 1019.3 |
| 20260905223743 | 75 | 28 | 5.0 | 8.0 | 0.00 | 0.00 | 0.00 | 91 | 1019.4 |
| 20260905223240 | 75 | 62 | 7.0 | 8.0 | 0.00 | 0.00 | 0.00 | 91 | 1019.3 |
| 20260905222735 | 76 | 5 | 12.0 | 15.0 | 0.00 | 0.00 | 0.00 | 91 | 1019.5 |
| 20260905222234 | 75 | 13 | 8.0 | 8.0 | 0.00 | 0.00 | 0.00 | 92 | 1019.7 |
| 20260905221730 | 75 | 27 | 4.0 | 6.0 | 0.00 | 0.00 | 0.00 | 92 | 1019.4 |
| 20260905221227 | 76 | 11 | 10.0 | 11.0 | 0.00 | 0.00 | 0.00 | 92 | 1019.3 |
| 20260905220722 | 76 | 3 | 7.0 | 9.0 | 0.00 | 0.00 | 0.00 | 91 | 1019.1 |
| 20260905220218 | 76 | 13 | 6.0 | 8.0 | 0.00 | 0.00 | 0.00 | 91 | 1019.2 |
| 20260905215718 | 76 | 25 | 5.0 | 6.0 | 0.00 | 0.00 | 0.00 | 90 | 1019.5 |
| 20260905215214 | 76 | 359 | 8.0 | 10.0 | 0.00 | 0.00 | 0.00 | 89 | 1019.2 |
| 20260905214709 | 76 | 37 | 7.0 | 8.0 | 0.00 | 0.00 | 0.00 | 89 | 1019.3 |
| 20260905214204 | 76 | 41 | 10.0 | 11.0 | 0.00 | 0.00 | 0.00 | 89 | 1019.3 |
| 20260905213700 | 77 | 4 | 6.0 | 8.0 | 0.00 | 0.00 | 0.00 | 89 | 1019.3 |
| 20260905213155 | 77 | 354 | 9.0 | 13.0 | 0.00 | 0.00 | 0.00 | 88 | 1019.1 |
| 20260905212650 | 77 | 6 | 9.0 | 13.0 | 0.00 | 0.00 | 0.00 | 89 | 1019.2 |
| 20260905212150 | 77 | 27 | 8.0 | 10.0 | 0.00 | 0.00 | 0.00 | 89 | 1019.0 |
| 20260905211644 | 77 | 39 | 8.0 | 10.0 | 0.00 | 0.00 | 0.00 | 88 | 1019.0 |
| 20260905211140 | 78 | 27 | 6.0 | 9.0 | 0.00 | 0.00 | 0.00 | 88 | 1019.2 |
| 20260905210637 | 79 | 9 | 7.0 | 8.0 | 0.00 | 0.00 | 0.00 | 87 | 1019.1 |
| 20260905210136 | 78 | 26 | 7.0 | 9.0 | 0.00 | 0.00 | 0.00 | 88 | 1019.0 |
| 20260905205635 | 79 | 7 | 9.0 | 11.0 | 0.00 | 0.00 | 0.00 | 87 | 1019.0 |
| 20260905205130 | 78 | 341 | 10.0 | 13.0 | 0.00 | 0.00 | 0.00 | 88 | 1018.9 |
| 20260905204629 | 80 | 44 | 9.0 | 13.0 | 0.00 | 0.00 | 0.00 | 86 | 1018.9 |
| 20260905204125 | 79 | 27 | 9.0 | 13.0 | 0.00 | 0.00 | 0.00 | 87 | 1019.0 |
| 20260905203625 | 79 | 18 | 9.0 | 11.0 | 0.00 | 0.00 | 0.00 | 88 | 1019.2 |
| 20260905203120 | 80 | 29 | 4.0 | 5.0 | 0.00 | 0.00 | 0.00 | 88 | 1019.0 |
| 20260905202616 | 80 | 21 | 11.0 | 14.0 | 0.00 | 0.00 | 0.00 | 85 | 1018.9 |
| 20260905202111 | 80 | 332 | 8.0 | 10.0 | 0.00 | 0.00 | 0.00 | 87 | 1019.1 |
| 20260905201607 | 80 | 15 | 8.0 | 11.0 | 0.00 | 0.00 | 0.00 | 85 | 1019.1 |
| 20260905201106 | 81 | 8 | 8.0 | 13.0 | 0.00 | 0.00 | 0.00 | 85 | 1019.1 |
| 20260905200602 | 80 | 9 | 5.0 | 8.0 | 0.00 | 0.00 | 0.00 | 87 | 1019.2 |
| 20260905200056 | 81 | 2 | 10.0 | 13.0 | 0.00 | 0.00 | 0.00 | 85 | 1019.3 |
| 20260905195555 | 80 | 25 | 11.0 | 14.0 | 0.00 | 0.00 | 0.00 | 84 | 1019.1 |
| 20260905195051 | 81 | 341 | 9.0 | 10.0 | 0.00 | 0.00 | 0.00 | 84 | 1019.0 |
| 20260905194550 | 81 | 4 | 11.0 | 13.0 | 0.00 | 0.00 | 0.00 | 83 | 1019.0 |
| 20260905194050 | 80 | 359 | 10.0 | 11.0 | 0.00 | 0.00 | 0.00 | 83 | 1019.0 |
| 20260905193545 | 81 | 35 | 7.0 | 7.0 | 0.00 | 0.00 | 0.00 | 85 | 1019.2 |
| 20260905193040 | 81 | 332 | 7.0 | 9.0 | 0.00 | 0.00 | 0.00 | 86 | 1019.1 |
| 20260905192535 | 82 | 357 | 11.0 | 15.0 | 0.00 | 0.00 | 0.00 | 84 | 1019.3 |
| 20260905192032 | 83 | 11 | 8.0 | 10.0 | 0.00 | 0.00 | 0.00 | 84 | 1019.2 |
| 20260905191530 | 82 | 349 | 6.0 | 7.0 | 0.00 | 0.00 | 0.00 | 82 | 1019.2 |
| 20260905191029 | 83 | 31 | 5.0 | 6.0 | 0.00 | 0.00 | 0.00 | 82 | 1019.0 |
| 20260905190528 | 82 | 39 | 7.0 | 8.0 | 0.00 | 0.00 | 0.00 | 82 | 1019.3 |
| 20260905190028 | 83 | 72 | 7.0 | 10.0 | 0.00 | 0.00 | 0.00 | 82 | 1018.9 |
| 20260905185527 | 83 | 4 | 8.0 | 10.0 | 0.00 | 0.00 | 0.00 | 81 | 1019.3 |
| 20260905185026 | 83 | 2 | 9.0 | 10.0 | 0.00 | 0.00 | 0.00 | 82 | 1019.2 |
| 20260905184521 | 83 | 41 | 9.0 | 10.0 | 0.00 | 0.00 | 0.00 | 82 | 1019.0 |
| 20260905184020 | 83 | 4 | 7.0 | 8.0 | 0.00 | 0.00 | 0.00 | 83 | 1019.0 |
| 20260905183519 | 83 | 25 | 9.0 | 13.0 | 0.00 | 0.00 | 0.00 | 82 | 1019.3 |
| 20260905183015 | 83 | 342 | 11.0 | 13.0 | 0.00 | 0.00 | 0.00 | 82 | 1019.1 |
| 20260905182514 | 83 | 42 | 8.0 | 10.0 | 0.00 | 0.00 | 0.00 | 81 | 1019.1 |
| 20260905182009 | 83 | 37 | 8.0 | 11.0 | 0.00 | 0.00 | 0.00 | 82 | 1018.9 |
| 20260905181510 | 84 | 10 | 7.0 | 9.0 | 0.00 | 0.00 | 0.00 | 80 | 1019.0 |
| 20260905181009 | 84 | 9 | 8.0 | 10.0 | 0.00 | 0.00 | 0.00 | 80 | 1018.7 |
| 20260905180504 | 84 | 28 | 9.0 | 13.0 | 0.00 | 0.00 | 0.00 | 81 | 1019.0 |
| 20260905175959 | 84 | 16 | 7.0 | 8.0 | 0.00 | 0.00 | 0.00 | 81 | 1019.0 |
| 20260905175458 | 84 | 49 | 3.0 | 5.0 | 0.00 | 0.00 | 0.00 | 82 | 1019.0 |
| 20260905174954 | 84 | 22 | 7.0 | 9.0 | 0.00 | 0.00 | 0.00 | 82 | 1019.0 |
| 20260905174449 | 83 | 29 | 7.0 | 8.0 | 0.00 | 0.00 | 0.00 | 81 | 1018.9 |
| 20260905173945 | 84 | 83 | 4.0 | 7.0 | 0.00 | 0.00 | 0.00 | 83 | 1019.0 |
| 20260905173441 | 83 | 355 | 8.0 | 10.0 | 0.00 | 0.00 | 0.00 | 82 | 1019.0 |
| 20260905172936 | 83 | 7 | 7.0 | 9.0 | 0.00 | 0.00 | 0.00 | 83 | 1019.2 |
| 20260905172434 | 83 | 348 | 7.0 | 9.0 | 0.00 | 0.00 | 0.00 | 82 | 1018.9 |
| 20260905171930 | 84 | 19 | 10.0 | 11.0 | 0.00 | 0.00 | 0.00 | 83 | 1019.0 |
| 20260905171426 | 83 | 37 | 4.0 | 6.0 | 0.00 | 0.00 | 0.00 | 85 | 1019.0 |
| 20260905170923 | 83 | 3 | 7.0 | 8.0 | 0.00 | 0.00 | 0.00 | 85 | 1019.0 |
| 20260905170418 | 83 | 358 | 6.0 | 7.0 | 0.00 | 0.00 | 0.00 | 85 | 1019.1 |
| 20260905165917 | 84 | 25 | 4.0 | 5.0 | 0.00 | 0.00 | 0.00 | 82 | 1019.4 |
| 20260905165413 | 84 | 24 | 5.0 | 6.0 | 0.00 | 0.00 | 0.00 | 85 | 1019.2 |
| 20260905164908 | 83 | 68 | 5.0 | 8.0 | 0.00 | 0.00 | 0.00 | 85 | 1019.2 |
| 20260905164402 | 82 | 12 | 8.0 | 9.0 | 0.00 | 0.00 | 0.00 | 85 | 1019.2 |
| 20260905163858 | 83 | 7 | 6.0 | 7.0 | 0.00 | 0.00 | 0.00 | 87 | 1019.1 |
| 20260905163354 | 82 | 350 | 6.0 | 8.0 | 0.00 | 0.00 | 0.00 | 88 | 1019.2 |
| 20260905162850 | 83 | 29 | 3.0 | 5.0 | 0.00 | 0.00 | 0.00 | 88 | 1019.4 |
| 20260905162349 | 83 | 23 | 8.0 | 11.0 | 0.00 | 0.00 | 0.00 | 88 | 1019.3 |
| 20260905161844 | 83 | 53 | 3.0 | 3.0 | 0.00 | 0.00 | 0.00 | 89 | 1019.2 |
| 20260905161344 | 83 | 48 | 3.0 | 3.0 | 0.00 | 0.00 | 0.00 | 89 | 1019.1 |
| 20260905160842 | 83 | 12 | 6.0 | 8.0 | 0.00 | 0.00 | 0.00 | 88 | 1019.3 |
| 20260905160336 | 82 | 351 | 4.0 | 5.0 | 0.00 | 0.00 | 0.00 | 90 | 1019.3 |
| 20260905155831 | 82 | 20 | 5.0 | 6.0 | 0.00 | 0.00 | 0.00 | 90 | 1019.2 |
| 20260905155331 | 82 | 44 | 4.0 | 5.0 | 0.00 | 0.00 | 0.00 | 89 | 1019.1 |
| 20260905154830 | 82 | 41 | 5.0 | 6.0 | 0.00 | 0.00 | 0.00 | 89 | 1019.0 |
| 20260905154326 | 82 | 24 | 4.0 | 5.0 | 0.00 | 0.00 | 0.00 | 89 | 1018.9 |
| 20260905153821 | 81 | 338 | 6.0 | 8.0 | 0.00 | 0.00 | 0.00 | 89 | 1019.1 |
| 20260905153318 | 82 | 358 | 6.0 | 9.0 | 0.00 | 0.00 | 0.00 | 89 | 1019.2 |
| 20260905152817 | 81 | 14 | 8.0 | 9.0 | 0.00 | 0.00 | 0.00 | 90 | 1019.1 |
| 20260905152316 | 81 | 45 | 4.0 | 5.0 | 0.00 | 0.00 | 0.00 | 91 | 1019.1 |
| 20260905151812 | 81 | 54 | 6.0 | 8.0 | 0.00 | 0.00 | 0.00 | 92 | 1019.0 |
| 20260905151307 | 81 | 20 | 9.0 | 11.0 | 0.00 | 0.00 | 0.00 | 91 | 1019.0 |
| 20260905150808 | 82 | 23 | 5.0 | 9.0 | 0.00 | 0.00 | 0.00 | 90 | 1018.7 |
| 20260905150307 | 82 | 349 | 7.0 | 8.0 | 0.00 | 0.00 | 0.00 | 89 | 1018.8 |
| 20260905145805 | 82 | 6 | 6.0 | 7.0 | 0.00 | 0.00 | 0.00 | 91 | 1018.8 |
| 20260905145259 | 82 | 44 | 4.0 | 5.0 | 0.00 | 0.00 | 0.00 | 91 | 1018.5 |
| 20260905144757 | 83 | 32 | 5.0 | 6.0 | 0.00 | 0.00 | 0.00 | 90 | 1018.5 |
| 20260905144254 | 82 | 65 | 1.0 | 2.0 | 0.00 | 0.00 | 0.00 | 93 | 1018.4 |
| 20260905143752 | 81 | 34 | 6.0 | 7.0 | 0.00 | 0.00 | 0.00 | 93 | 1018.2 |
| 20260905143247 | 80 | 12 | 6.0 | 7.0 | 0.00 | 0.00 | 0.00 | 93 | 1018.3 |
| 20260905142745 | 81 | 27 | 5.0 | 7.0 | 0.00 | 0.00 | 0.00 | 92 | 1018.2 |
| 20260905142240 | 81 | 15 | 5.0 | 5.0 | 0.00 | 0.00 | 0.00 | 93 | 1018.4 |
| 20260905141736 | 81 | 349 | 7.0 | 7.0 | 0.00 | 0.00 | 0.00 | 91 | 1018.2 |
| 20260905141232 | 81 | 20 | 3.0 | 3.0 | 0.00 | 0.00 | 0.00 | 93 | 1018.3 |
| 20260905140727 | 81 | 69 | 3.0 | 3.0 | 0.00 | 0.00 | 0.00 | 92 | 1018.4 |
| 20260905140221 | 82 | 37 | 1.0 | 1.0 | 0.00 | 0.00 | 0.00 | 92 | 1018.5 |
| 20260905135720 | 81 | 43 | 4.0 | 5.0 | 0.00 | 0.00 | 0.00 | 94 | 1018.8 |
| 20260905135217 | 80 | 16 | 3.0 | 3.0 | 0.00 | 0.00 | 0.00 | 96 | 1018.6 |
| 20260905134716 | 79 | 36 | 3.0 | 3.0 | 0.00 | 0.00 | 0.00 | 96 | 1018.7 |
| 20260905134215 | 79 | 38 | 3.0 | 3.0 | 0.00 | 0.00 | 0.00 | 96 | 1018.7 |
| 20260905133711 | 80 | 34 | 3.0 | 5.0 | 0.00 | 0.00 | 0.00 | 96 | 1018.7 |
| 20260905133211 | 79 | 39 | 5.0 | 6.0 | 0.00 | 0.00 | 0.00 | 96 | 1018.7 |
| 20260905132710 | 79 | 27 | 5.0 | 6.0 | 0.00 | 0.00 | 0.00 | 97 | 1018.6 |
| 20260905132206 | 78 | 14 | 4.0 | 6.0 | 0.00 | 0.00 | 0.00 | 99 | 1018.5 |
| 20260905131701 | 78 | 21 | 3.0 | 3.0 | 0.00 | 0.00 | 0.00 | 99 | 1018.3 |
| 20260905131156 | 78 | 353 | 4.0 | 5.0 | 0.00 | 0.00 | 0.00 | 99 | 1018.5 |
| 20260905130655 | 78 | 25 | 4.0 | 5.0 | 0.00 | 0.00 | 0.00 | 99 | 1018.2 |
| 20260905130150 | 78 | 55 | 2.0 | 2.0 | 0.00 | 0.00 | 0.00 | 99 | 1018.2 |
| 20260905125650 | 78 | 78 | 1.0 | 2.0 | 0.00 | 0.00 | 0.00 | 99 | 1018.2 |
| 20260905125146 | 78 | 94 | 2.0 | 2.0 | 0.00 | 0.00 | 0.00 | 99 | 1018.2 |
| 20260905124641 | 78 | 95 | 1.0 | 1.0 | 0.00 | 0.00 | 0.00 | 99 | 1018.2 |
| 20260905124138 | 78 | 95 | 0.0 | 1.0 | 0.00 | 0.00 | 0.00 | 99 | 1018.1 |
| 20260905123633 | 77 | 95 | 1.0 | 1.0 | 0.00 | 0.00 | 0.00 | 99 | 1018.0 |
| 20260905123130 | 76 | 95 | 0.0 | 0.0 | 0.00 | 0.00 | 0.00 | 99 | 1018.0 |
| 20260905122629 | 76 | 95 | 1.0 | 1.0 | 0.00 | 0.00 | 0.00 | 99 | 1018.0 |
| 20260905122124 | 75 | 95 | 0.0 | 1.0 | 0.00 | 0.00 | 0.00 | 99 | 1017.8 |
| 20260905121619 | 75 | 95 | 0.0 | 0.0 | 0.00 | 0.00 | 0.00 | 99 | 1017.7 |
| 20260905121114 | 75 | 95 | 0.0 | 0.0 | 0.00 | 0.00 | 0.00 | 99 | 1017.7 |
| 20260905120613 | 75 | 95 | 0.0 | 0.0 | 0.00 | 0.00 | 0.00 | 99 | 1017.8 |
| 20260905120109 | 75 | 95 | 0.0 | 0.0 | 0.00 | 0.00 | 0.00 | 99 | 1017.5 |
| 20260905115607 | 74 | 95 | 0.0 | 0.0 | 0.00 | 0.00 | 0.00 | 99 | 1017.4 |
| 20260905115102 | 74 | 95 | 2.0 | 2.0 | 0.00 | 0.00 | 0.00 | 99 | 1017.3 |
| 20260905114602 | 74 | 95 | 1.0 | 2.0 | 0.00 | 0.00 | 0.00 | 99 | 1017.3 |
| 20260905114101 | 75 | 95 | 1.0 | 1.0 | 0.00 | 0.00 | 0.00 | 99 | 1017.3 |
| 20260905113556 | 74 | 95 | 1.0 | 1.0 | 0.00 | 0.00 | 0.00 | 99 | 1017.4 |
| 20260905113051 | 74 | 95 | 0.0 | 0.0 | 0.00 | 0.00 | 0.00 | 99 | 1017.3 |
| 20260905112546 | 74 | 95 | 1.0 | 2.0 | 0.00 | 0.00 | 0.00 | 99 | 1017.4 |
| 20260905112041 | 75 | 95 | 2.0 | 2.0 | 0.00 | 0.00 | 0.00 | 99 | 1017.2 |
| 20260905111537 | 75 | 95 | 2.0 | 2.0 | 0.00 | 0.00 | 0.00 | 99 | 1017.4 |
| 20260905111036 | 75 | 94 | 0.0 | 0.0 | 0.00 | 0.00 | 0.00 | 99 | 1017.2 |
| 20260905110535 | 75 | 94 | 0.0 | 0.0 | 0.00 | 0.00 | 0.00 | 99 | 1017.3 |
| 20260905110030 | 75 | 94 | 0.0 | 0.0 | 0.00 | 0.00 | 0.00 | 99 | 1017.3 |
| 20260905105530 | 75 | 94 | 0.0 | 1.0 | 0.00 | 0.00 | 0.00 | 99 | 1017.2 |
| 20260905105029 | 75 | 94 | 0.0 | 0.0 | 0.00 | 0.00 | 0.00 | 99 | 1017.2 |
| 20260905104526 | 75 | 94 | 0.0 | 0.0 | 0.00 | 0.00 | 0.00 | 99 | 1017.4 |
| 20260905104025 | 75 | 94 | 0.0 | 0.0 | 0.00 | 0.00 | 0.00 | 99 | 1017.3 |
| 20260905103520 | 75 | 94 | 0.0 | 0.0 | 0.00 | 0.00 | 0.00 | 99 | 1017.4 |
| 20260905103017 | 75 | 94 | 0.0 | 0.0 | 0.00 | 0.00 | 0.00 | 99 | 1017.4 |
| 20260905102512 | 75 | 93 | 0.0 | 0.0 | 0.00 | 0.00 | 0.00 | 99 | 1017.6 |
| 20260905102008 | 75 | 93 | 0.0 | 0.0 | 0.00 | 0.00 | 0.00 | 99 | 1017.3 |
| 20260905101507 | 75 | 93 | 0.0 | 0.0 | 0.00 | 0.00 | 0.00 | 99 | 1017.3 |
| 20260905101005 | 75 | 93 | 1.0 | 1.0 | 0.00 | 0.00 | 0.00 | 99 | 1017.6 |
| 20260905100501 | 75 | 93 | 1.0 | 1.0 | 0.00 | 0.00 | 0.00 | 99 | 1017.5 |
| 20260905100000 | 75 | 89 | 1.0 | 2.0 | 0.00 | 0.00 | 0.00 | 99 | 1017.6 |
| 20260905095455 | 76 | 243 | 1.0 | 1.0 | 0.00 | 0.00 | 0.00 | 99 | 1017.3 |
| 20260905094951 | 76 | 243 | 0.0 | 0.0 | 0.00 | 0.00 | 0.00 | 99 | 1017.4 |
| 20260905094446 | 76 | 243 | 1.0 | 1.0 | 0.00 | 0.00 | 0.00 | 99 | 1017.4 |
| 20260905093944 | 76 | 244 | 0.0 | 0.0 | 0.00 | 0.00 | 0.00 | 99 | 1017.3 |
| 20260905093440 | 76 | 244 | 0.0 | 0.0 | 0.00 | 0.00 | 0.00 | 99 | 1017.4 |
| 20260905092936 | 76 | 244 | 0.0 | 0.0 | 0.00 | 0.00 | 0.00 | 99 | 1017.2 |
| 20260905092431 | 76 | 244 | 0.0 | 0.0 | 0.00 | 0.00 | 0.00 | 99 | 1017.4 |
| 20260905091927 | 76 | 244 | 0.0 | 0.0 | 0.00 | 0.00 | 0.00 | 99 | 1017.2 |
| 20260905091427 | 76 | 244 | 0.0 | 0.0 | 0.00 | 0.00 | 0.00 | 99 | 1017.4 |
| 20260905090926 | 76 | 244 | 0.0 | 0.0 | 0.00 | 0.00 | 0.00 | 99 | 1017.2 |
| 20260905090421 | 76 | 244 | 0.0 | 0.0 | 0.00 | 0.00 | 0.00 | 99 | 1017.2 |
| 20260905085920 | 77 | 244 | 0.0 | 0.0 | 0.00 | 0.00 | 0.00 | 99 | 1017.2 |
| 20260905085414 | 77 | 244 | 0.0 | 0.0 | 0.00 | 0.00 | 0.00 | 99 | 1017.4 |
| 20260905084911 | 77 | 244 | 0.0 | 0.0 | 0.00 | 0.00 | 0.00 | 99 | 1017.4 |
| 20260905084410 | 77 | 244 | 0.0 | 0.0 | 0.00 | 0.00 | 0.00 | 99 | 1017.4 |
| 20260905083905 | 77 | 244 | 2.0 | 2.0 | 0.00 | 0.00 | 0.00 | 99 | 1017.1 |
| 20260905083401 | 77 | 244 | 2.0 | 2.0 | 0.00 | 0.00 | 0.00 | 99 | 1017.6 |
| 20260905082856 | 77 | 244 | 1.0 | 1.0 | 0.00 | 0.00 | 0.00 | 99 | 1017.5 |
| 20260905082351 | 77 | 244 | 0.0 | 0.0 | 0.00 | 0.00 | 0.00 | 99 | 1017.3 |
| 20260905081846 | 77 | 244 | 0.0 | 0.0 | 0.00 | 0.00 | 0.00 | 99 | 1017.3 |
| 20260905081341 | 77 | 244 | 0.0 | 0.0 | 0.00 | 0.00 | 0.00 | 99 | 1017.3 |
| 20260905080841 | 77 | 244 | 0.0 | 0.0 | 0.00 | 0.00 | 0.00 | 99 | 1017.3 |
| 20260905080340 | 77 | 244 | 0.0 | 0.0 | 0.00 | 0.00 | 0.00 | 99 | 1017.5 |
| 20260905075839 | 77 | 244 | 1.0 | 1.0 | 0.00 | 0.00 | 0.00 | 99 | 1017.2 |
| 20260905075339 | 77 | 244 | 1.0 | 2.0 | 0.00 | 0.00 | 0.00 | 99 | 1017.3 |
| 20260905074838 | 77 | 244 | 0.0 | 0.0 | 0.00 | 0.00 | 0.00 | 99 | 1017.4 |
| 20260905074334 | 77 | 244 | 1.0 | 1.0 | 0.00 | 0.00 | 0.00 | 99 | 1017.3 |
| 20260905073830 | 77 | 244 | 0.0 | 0.0 | 0.00 | 0.00 | 0.00 | 99 | 1017.0 |
| 20260905073325 | 77 | 244 | 0.0 | 0.0 | 0.00 | 0.00 | 0.00 | 99 | 1017.0 |
| 20260905072825 | 77 | 244 | 1.0 | 1.0 | 0.00 | 0.00 | 0.00 | 99 | 1017.3 |
| 20260905072321 | 77 | 244 | 1.0 | 2.0 | 0.00 | 0.00 | 0.00 | 99 | 1017.3 |
| 20260905071817 | 77 | 244 | 2.0 | 2.0 | 0.00 | 0.00 | 0.00 | 99 | 1017.1 |
| 20260905071313 | 77 | 242 | 1.0 | 1.0 | 0.00 | 0.00 | 0.00 | 99 | 1017.1 |
| 20260905070808 | 77 | 242 | 1.0 | 1.0 | 0.00 | 0.00 | 0.00 | 99 | 1016.9 |
| 20260905070304 | 77 | 242 | 1.0 | 1.0 | 0.00 | 0.00 | 0.00 | 99 | 1017.4 |
| 20260905065803 | 78 | 242 | 1.0 | 1.0 | 0.00 | 0.00 | 0.00 | 99 | 1017.4 |
| 20260905065256 | 77 | 242 | 1.0 | 1.0 | 0.00 | 0.00 | 0.00 | 99 | 1017.1 |
| 20260905064752 | 78 | 242 | 2.0 | 2.0 | 0.00 | 0.00 | 0.00 | 99 | 1017.1 |
| 20260905064247 | 78 | 243 | 3.0 | 3.0 | 0.00 | 0.00 | 0.00 | 98 | 1017.0 |
| 20260905063746 | 78 | 240 | 4.0 | 5.0 | 0.00 | 0.00 | 0.00 | 98 | 1017.4 |
| 20260905063242 | 78 | 240 | 4.0 | 5.0 | 0.00 | 0.00 | 0.00 | 99 | 1017.3 |
| 20260905062737 | 78 | 240 | 3.0 | 3.0 | 0.00 | 0.00 | 0.00 | 98 | 1017.5 |
| 20260905062231 | 78 | 240 | 2.0 | 2.0 | 0.00 | 0.00 | 0.00 | 98 | 1017.5 |
| 20260905061731 | 78 | 240 | 3.0 | 3.0 | 0.00 | 0.00 | 0.00 | 99 | 1017.7 |
| 20260905061227 | 78 | 240 | 2.0 | 2.0 | 0.00 | 0.00 | 0.00 | 99 | 1017.6 |
| 20260905060726 | 78 | 240 | 1.0 | 1.0 | 0.00 | 0.00 | 0.00 | 99 | 1017.3 |
| 20260905060223 | 77 | 240 | 0.0 | 0.0 | 0.00 | 0.00 | 0.00 | 99 | 1017.8 |
| 20260905055721 | 77 | 240 | 0.0 | 0.0 | 0.00 | 0.00 | 0.00 | 99 | 1017.5 |
| 20260905055217 | 77 | 240 | 0.0 | 0.0 | 0.00 | 0.00 | 0.00 | 99 | 1017.7 |
| 20260905054712 | 77 | 240 | 0.0 | 0.0 | 0.00 | 0.00 | 0.00 | 99 | 1017.6 |
| 20260905054208 | 77 | 240 | 1.0 | 1.0 | 0.00 | 0.00 | 0.00 | 99 | 1017.8 |
| 20260905053707 | 78 | 240 | 0.0 | 0.0 | 0.00 | 0.00 | 0.00 | 99 | 1017.8 |
| 20260905053202 | 78 | 240 | 1.0 | 1.0 | 0.00 | 0.00 | 0.00 | 99 | 1017.9 |
| 20260905052657 | 78 | 240 | 2.0 | 2.0 | 0.00 | 0.00 | 0.00 | 99 | 1017.8 |
| 20260905052152 | 78 | 240 | 1.0 | 1.0 | 0.00 | 0.00 | 0.00 | 99 | 1017.9 |
| 20260905051652 | 78 | 240 | 0.0 | 1.0 | 0.00 | 0.00 | 0.00 | 99 | 1017.9 |
| 20260905051148 | 77 | 240 | 1.0 | 1.0 | 0.00 | 0.00 | 0.00 | 99 | 1017.8 |
| 20260905050644 | 78 | 240 | 0.0 | 0.0 | 0.00 | 0.00 | 0.00 | 99 | 1017.8 |
| 20260905050142 | 78 | 240 | 1.0 | 1.0 | 0.00 | 0.00 | 0.00 | 99 | 1017.7 |
| 20260905045641 | 78 | 240 | 1.0 | 2.0 | 0.00 | 0.00 | 0.00 | 99 | 1017.7 |
| 20260905045137 | 78 | 240 | 1.0 | 2.0 | 0.00 | 0.00 | 0.00 | 99 | 1017.7 |
| 20260905044636 | 78 | 240 | 1.0 | 2.0 | 0.00 | 0.00 | 0.00 | 99 | 1017.9 |
| 20260905044131 | 79 | 240 | 1.0 | 2.0 | 0.00 | 0.00 | 0.00 | 99 | 1017.9 |
| 20260905043630 | 79 | 240 | 2.0 | 2.0 | 0.00 | 0.00 | 0.00 | 99 | 1017.7 |
| 20260905043125 | 79 | 240 | 2.0 | 2.0 | 0.00 | 0.00 | 0.00 | 99 | 1017.8 |
| 20260905042624 | 78 | 240 | 1.0 | 1.0 | 0.00 | 0.00 | 0.00 | 99 | 1018.0 |
| 20260905042119 | 78 | 240 | 1.0 | 1.0 | 0.00 | 0.00 | 0.00 | 99 | 1018.1 |
| 20260905041615 | 78 | 240 | 0.0 | 0.0 | 0.00 | 0.00 | 0.00 | 99 | 1018.1 |
| 20260905041110 | 79 | 240 | 0.0 | 0.0 | 0.00 | 0.00 | 0.00 | 99 | 1018.0 |
| 20260905040610 | 79 | 240 | 1.0 | 1.0 | 0.00 | 0.00 | 0.00 | 99 | 1017.8 |
| 20260905040109 | 78 | 240 | 2.0 | 2.0 | 0.00 | 0.00 | 0.00 | 99 | 1018.0 |
| 20260905035604 | 78 | 240 | 0.0 | 0.0 | 0.00 | 0.00 | 0.00 | 99 | 1018.0 |
| 20260905035101 | 78 | 240 | 0.0 | 0.0 | 0.00 | 0.00 | 0.00 | 99 | 1018.2 |
| 20260905034557 | 78 | 240 | 0.0 | 0.0 | 0.00 | 0.00 | 0.00 | 99 | 1018.0 |
| 20260905034056 | 78 | 240 | 0.0 | 0.0 | 0.00 | 0.00 | 0.00 | 99 | 1018.2 |
| 20260905033550 | 79 | 240 | 0.0 | 0.0 | 0.00 | 0.00 | 0.00 | 99 | 1018.2 |
| 20260905033046 | 79 | 240 | 0.0 | 0.0 | 0.00 | 0.00 | 0.00 | 99 | 1018.2 |
| 20260905032547 | 79 | 240 | 1.0 | 1.0 | 0.00 | 0.00 | 0.00 | 99 | 1018.2 |
| 20260905032046 | 79 | 240 | 2.0 | 2.0 | 0.00 | 0.00 | 0.00 | 98 | 1018.2 |
| 20260905031543 | 79 | 240 | 1.0 | 2.0 | 0.00 | 0.00 | 0.00 | 99 | 1018.2 |
| 20260905031042 | 79 | 240 | 1.0 | 1.0 | 0.00 | 0.00 | 0.00 | 99 | 1018.1 |
| 20260905030537 | 80 | 240 | 0.0 | 0.0 | 0.00 | 0.00 | 0.00 | 99 | 1018.2 |
| 20260905030037 | 80 | 240 | 0.0 | 0.0 | 0.00 | 0.00 | 0.00 | 99 | 1018.3 |
| 20260905025532 | 80 | 240 | 0.0 | 0.0 | 0.00 | 0.00 | 0.00 | 99 | 1018.2 |
| 20260905025029 | 80 | 240 | 0.0 | 0.0 | 0.00 | 0.00 | 0.00 | 99 | 1018.1 |
| 20260905024524 | 80 | 240 | 0.0 | 0.0 | 0.00 | 0.00 | 0.00 | 99 | 1018.2 |
| 20260905024019 | 80 | 240 | 0.0 | 0.0 | 0.00 | 0.00 | 0.00 | 99 | 1018.1 |
| 20260905023515 | 80 | 240 | 0.0 | 0.0 | 0.00 | 0.00 | 0.00 | 99 | 1018.4 |
| 20260905023014 | 80 | 240 | 0.0 | 0.0 | 0.00 | 0.00 | 0.00 | 98 | 1017.9 |
| 20260905022509 | 80 | 240 | 0.0 | 0.0 | 0.00 | 0.00 | 0.00 | 98 | 1018.1 |